Location: 22
(39.7117°N, 89.5929°W)
Time: 06:22:20
(UTC-05:00)

Vanguard 1 Rocket - Pass Details

Date: 16 February 2023
Orbit: 652 x 4223 km, 34.3° (Epoch: 26 March)

Event Time Altitude Azimuth Distance (km) Brightness Sun altitude
Rises 08:09:36 0° 221° (SW) 2,993 10.0 13.4°
Reaches altitude 10° 08:11:57 10° 207° (SSW) 2,192 9.5 13.8°
Maximum altitude 08:16:03 27° 149° (SSE) 1,625 10.0 14.5°
Drops below altitude 10° 08:21:51 10° 94° (E) 3,175 11.5 15.4°
Sets 08:26:03 0° 84° (E) 4,693 11.9 16.1°
